Precipitable_Water
0.67 0.67 0.67 0.67 0.65 0.62 0.61 0.65 0.67 0.60 0.57 0.57 0.58 0.59 0.58 0.58 0.57 0.56 0.56 0.54 0.53 0.51 0.51 0.50 0.49 0.50 0.50 0.53 0.53 0.51 0.51 0.47 0.40 0.39 0.37 0.38 0.42 0.42 0.39 0.37 0.37 0.36 0.36 0.33 0.31 0.29 0.27 0.28 0.28 0.29 0.30 0.28 0.29 0.27 0.31 0.32 0.34 0.31 0.24 0.25 0.23 0.21 0.23 0.25 0.26 0.27 0.30 0.27 0.30 0.29 0.27 0.26 0.24 0.30 0.30 0.29 0.27 0.26 0.25 0.24 0.27 0.28 0.28 0.32 0.48 0.51 0.72 0.95
0.66 0.66 0.66 0.65 0.65 0.65 0.62 0.64 0.68 0.63 0.59 0.59 0.59 0.59 0.58 0.58 0.56 0.55 0.54 0.53 0.52 0.51 0.50 0.49 0.50 0.52 0.55 0.56 0.59 0.59 0.55 0.46 0.40 0.38 0.37 0.45 0.44 0.43 0.40 0.36 0.37 0.36 0.34 0.31 0.31 0.28 0.27 0.27 0.27 0.29 0.25 0.24 0.27 0.28 0.28 0.29 0.33 0.26 0.23 0.23 0.20 0.24 0.25 0.31 0.30 0.31 0.28 0.24 0.29 0.31 0.30 0.27 0.28 0.29 0.31 0.24 0.25 0.27 0.25 0.24 0.26 0.27 0.28 0.35 0.54 0.61 0.72 0.93
0.65 0.64 0.64 0.64 0.65 0.66 0.64 0.64 0.68 0.67 0.61 0.61 0.60 0.58 0.58 0.57 0.55 0.54 0.53 0.51 0.51 0.51 0.50 0.50 0.52 0.57 0.57 0.59 0.62 0.63 0.56 0.42 0.42 0.36 0.38 0.48 0.42 0.41 0.39 0.36 0.38 0.37 0.37 0.32 0.33 0.33 0.29 0.28 0.27 0.27 0.24 0.22 0.23 0.24 0.25 0.30 0.26 0.26 0.26 0.22 0.22 0.27 0.31 0.30 0.30 0.29 0.28 0.29 0.30 0.31 0.31 0.28 0.30 0.27 0.31 0.24 0.25 0.26 0.23 0.23 0.26 0.26 0.29 0.35 0.59 0.63 0.80 0.89
0.63 0.62 0.62 0.63 0.63 0.65 0.65 0.63 0.66 0.68 0.63 0.62 0.63 0.60 0.58 0.58 0.55 0.54 0.53 0.52 0.51 0.51 0.51 0.52 0.56 0.59 0.61 0.60 0.62 0.63 0.53 0.42 0.31 0.35 0.41 0.45 0.40 0.40 0.36 0.37 0.38 0.38 0.37 0.36 0.34 0.32 0.31 0.29 0.27 0.24 0.20 0.20 0.20 0.24 0.21 0.28 0.22 0.28 0.22 0.20 0.21 0.27 0.25 0.26 0.27 0.28 0.30 0.29 0.28 0.29 0.31 0.27 0.28 0.29 0.26 0.25 0.22 0.22 0.23 0.25 0.26 0.26 0.29 0.35 0.57 0.66 0.82 0.88
0.63 0.62 0.62 0.62 0.63 0.64 0.64 0.62 0.63 0.67 0.65 0.63 0.64 0.64 0.62 0.60 0.57 0.55 0.54 0.52 0.52 0.51 0.51 0.55 0.58 0.60 0.60 0.63 0.63 0.60 0.45 0.35 0.30 0.39 0.39 0.41 0.41 0.39 0.39 0.39 0.39 0.39 0.39 0.36 0.34 0.32 0.31 0.29 0.25 0.23 0.21 0.19 0.20 0.20 0.22 0.24 0.26 0.25 0.18 0.21 0.24 0.25 0.20 0.23 0.25 0.27 0.27 0.28 0.27 0.27 0.26 0.24 0.28 0.25 0.23 0.22 0.19 0.20 0.22 0.25 0.26 0.28 0.34 0.43 0.53 0.72 0.79 0.85
0.64 0.64 0.64 0.65 0.66 0.67 0.67 0.64 0.63 0.67 0.68 0.64 0.67 0.69 0.67 0.63 0.60 0.57 0.56 0.55 0.54 0.53 0.54 0.57 0.60 0.60 0.60 0.59 0.59 0.52 0.38 0.21 0.33 0.37 0.41 0.37 0.38 0.40 0.39 0.41 0.40 0.38 0.37 0.35 0.32 0.29 0.29 0.27 0.25 0.21 0.20 0.19 0.18 0.18 0.19 0.22 0.22 0.19 0.20 0.21 0.21 0.22 0.19 0.23 0.24 0.24 0.24 0.23 0.22 0.23 0.25 0.27 0.25 0.23 0.25 0.23 0.19 0.20 0.23 0.24 0.23 0.24 0.36 0.54 0.57 0.71 0.78 0.83
0.65 0.65 0.66 0.67 0.69 0.69 0.69 0.67 0.65 0.67 0.70 0.68 0.69 0.73 0.71 0.66 0.62 0.59 0.58 0.57 0.56 0.55 0.56 0.59 0.61 0.60 0.59 0.58 0.57 0.46 0.30 0.27 0.35 0.37 0.37 0.38 0.38 0.40 0.44 0.42 0.39 0.37 0.37 0.33 0.28 0.25 0.23 0.22 0.23 0.20 0.19 0.18 0.18 0.19 0.19 0.18 0.19 0.19 0.18 0.17 0.17 0.18 0.17 0.19 0.19 0.20 0.20 0.20 0.20 0.24 0.24 0.21 0.23 0.20 0.25 0.23 0.24 0.23 0.22 0.22 0.26 0.34 0.52 0.55 0.58 0.72 0.75 0.82
0.62 0.63 0.65 0.67 0.68 0.70 0.70 0.68 0.66 0.67 0.70 0.69 0.69 0.72 0.75 0.69 0.63 0.61 0.59 0.58 0.57 0.55 0.58 0.63 0.63 0.62 0.61 0.50 0.41 0.34 0.30 0.29 0.31 0.45 0.40 0.40 0.43 0.42 0.42 0.40 0.39 0.36 0.33 0.30 0.27 0.25 0.25 0.23 0.21 0.21 0.20 0.19 0.17 0.18 0.18 0.17 0.17 0.16 0.16 0.16 0.17 0.16 0.16 0.17 0.17 0.16 0.16 0.17 0.19 0.19 0.19 0.20 0.22 0.22 0.23 0.22 0.24 0.24 0.23 0.23 0.31 0.47 0.53 0.55 0.58 0.64 0.74 0.76
0.60 0.62 0.64 0.66 0.68 0.70 0.70 0.69 0.67 0.67 0.69 0.70 0.69 0.70 0.75 0.77 0.65 0.62 0.60 0.58 0.57 0.55 0.60 0.64 0.62 0.60 0.63 0.48 0.37 0.30 0.30 0.37 0.41 0.46 0.44 0.41 0.43 0.42 0.39 0.37 0.38 0.35 0.32 0.30 0.29 0.26 0.26 0.21 0.23 0.23 0.20 0.18 0.19 0.18 0.18 0.16 0.15 0.18 0.17 0.17 0.17 0.16 0.16 0.16 0.16 0.15 0.15 0.16 0.17 0.17 0.17 0.19 0.20 0.20 0.19 0.20 0.23 0.23 0.23 0.23 0.31 0.43 0.48 0.52 0.58 0.63 0.66 0.72
0.58 0.60 0.63 0.66 0.68 0.70 0.70 0.68 0.66 0.66 0.68 0.69 0.69 0.69 0.74 0.80 0.72 0.63 0.61 0.60 0.58 0.56 0.60 0.62 0.61 0.62 0.58 0.45 0.35 0.30 0.36 0.50 0.49 0.49 0.44 0.41 0.39 0.38 0.37 0.37 0.37 0.34 0.31 0.29 0.29 0.27 0.25 0.23 0.23 0.23 0.22 0.19 0.20 0.18 0.17 0.17 0.18 0.17 0.17 0.17 0.17 0.15 0.15 0.15 0.15 0.15 0.15 0.15 0.16 0.15 0.15 0.16 0.17 0.16 0.14 0.20 0.22 0.23 0.23 0.23 0.27 0.40 0.45 0.53 0.57 0.63 0.66 0.70
0.55 0.58 0.62 0.65 0.67 0.69 0.67 0.65 0.64 0.65 0.66 0.67 0.69 0.70 0.73 0.78 0.78 0.67 0.62 0.60 0.59 0.57 0.60 0.62 0.62 0.60 0.52 0.44 0.37 0.32 0.48 0.51 0.54 0.54 0.50 0.45 0.41 0.38 0.37 0.39 0.37 0.34 0.32 0.29 0.29 0.29 0.26 0.26 0.24 0.21 0.21 0.20 0.18 0.18 0.18 0.17 0.18 0.18 0.17 0.17 0.16 0.16 0.16 0.16 0.15 0.15 0.15 0.15 0.15 0.14 0.14 0.14 0.15 0.15 0.15 0.22 0.22 0.22 0.22 0.23 0.24 0.25 0.33 0.44 0.55 0.62 0.72 0.74
0.54 0.56 0.59 0.62 0.67 0.67 0.64 0.62 0.61 0.63 0.65 0.65 0.67 0.69 0.71 0.75 0.77 0.75 0.62 0.59 0.59 0.58 0.61 0.64 0.64 0.61 0.54 0.46 0.39 0.38 0.54 0.55 0.58 0.56 0.51 0.47 0.42 0.41 0.42 0.42 0.40 0.36 0.34 0.30 0.30 0.30 0.29 0.27 0.25 0.22 0.20 0.20 0.18 0.17 0.17 0.19 0.18 0.18 0.17 0.15 0.15 0.15 0.15 0.16 0.15 0.16 0.15 0.14 0.15 0.15 0.13 0.12 0.13 0.13 0.20 0.23 0.22 0.20 0.19 0.21 0.23 0.24 0.23 0.32 0.50 0.60 0.66 0.72
0.53 0.54 0.56 0.61 0.66 0.65 0.62 0.60 0.60 0.62 0.63 0.63 0.66 0.69 0.72 0.75 0.75 0.77 0.64 0.57 0.58 0.58 0.60 0.63 0.65 0.63 0.50 0.40 0.42 0.51 0.57 0.59 0.58 0.56 0.53 0.52 0.48 0.47 0.46 0.45 0.42 0.39 0.36 0.34 0.32 0.32 0.31 0.31 0.26 0.23 0.21 0.21 0.19 0.19 0.21 0.20 0.19 0.17 0.16 0.15 0.14 0.14 0.14 0.17 0.17 0.16 0.14 0.15 0.15 0.14 0.10 0.12 0.16 0.21 0.25 0.27 0.24 0.20 0.17 0.18 0.20 0.21 0.27 0.25 0.30 0.44 0.62 0.71
0.53 0.53 0.55 0.60 0.64 0.63 0.60 0.59 0.60 0.61 0.62 0.63 0.66 0.70 0.73 0.74 0.75 0.76 0.66 0.57 0.57 0.57 0.60 0.63 0.65 0.60 0.54 0.39 0.48 0.57 0.59 0.62 0.59 0.57 0.55 0.54 0.50 0.47 0.47 0.47 0.46 0.44 0.42 0.37 0.36 0.36 0.35 0.33 0.29 0.25 0.24 0.23 0.21 0.23 0.20 0.18 0.17 0.15 0.16 0.14 0.14 0.12 0.14 0.19 0.17 0.16 0.14 0.16 0.15 0.14 0.10 0.12 0.26 0.25 0.29 0.29 0.28 0.20 0.15 0.16 0.18 0.32 0.30 0.26 0.26 0.32 0.45 0.66
0.54 0.53 0.53 0.58 0.63 0.61 0.58 0.58 0.60 0.61 0.61 0.62 0.66 0.70 0.74 0.73 0.74 0.72 0.68 0.64 0.63 0.61 0.61 0.65 0.64 0.54 0.49 0.43 0.56 0.61 0.64 0.63 0.56 0.53 0.54 0.52 0.49 0.45 0.45 0.46 0.44 0.43 0.42 0.40 0.39 0.38 0.36 0.35 0.30 0.26 0.24 0.26 0.24 0.20 0.17 0.19 0.17 0.16 0.11 0.12 0.13 0.11 0.17 0.19 0.18 0.16 0.15 0.15 0.15 0.13 0.09 0.14 0.25 0.28 0.30 0.30 0.31 0.26 0.24 0.29 0.34 0.38 0.38 0.34 0.30 0.30 0.39 0.64
0.55 0.54 0.53 0.57 0.62 0.59 0.57 0.58 0.61 0.61 0.60 0.61 0.65 0.70 0.73 0.75 0.74 0.70 0.70 0.71 0.70 0.66 0.67 0.59 0.59 0.54 0.44 0.39 0.53 0.64 0.61 0.51 0.51 0.55 0.56 0.53 0.48 0.47 0.46 0.45 0.44 0.43 0.43 0.40 0.42 0.38 0.36 0.33 0.28 0.26 0.24 0.25 0.23 0.19 0.18 0.17 0.16 0.15 0.13 0.16 0.14 0.11 0.16 0.16 0.17 0.17 0.16 0.14 0.14 0.12 0.11 0.13 0.27 0.28 0.31 0.33 0.31 0.30 0.31 0.34 0.37 0.35 0.38 0.40 0.41 0.39 0.39 0.48
0.56 0.55 0.54 0.56 0.61 0.58 0.57 0.59 0.62 0.63 0.63 0.63 0.65 0.70 0.73 0.73 0.70 0.69 0.72 0.74 0.70 0.70 0.61 0.52 0.55 0.54 0.41 0.52 0.57 0.49 0.47 0.51 0.55 0.54 0.53 0.54 0.50 0.49 0.47 0.44 0.42 0.41 0.42 0.41 0.40 0.37 0.34 0.30 0.29 0.26 0.24 0.24 0.22 0.19 0.16 0.16 0.16 0.16 0.15 0.17 0.16 0.13 0.14 0.14 0.19 0.18 0.16 0.15 0.14 0.12 0.11 0.23 0.30 0.32 0.31 0.32 0.33 0.31 0.32 0.36 0.39 0.41 0.41 0.42 0.46 0.47 0.48 0.47
0.57 0.55 0.54 0.56 0.60 0.57 0.57 0.61 0.66 0.68 0.68 0.68 0.69 0.70 0.69 0.71 0.71 0.68 0.68 0.71 0.71 0.68 0.64 0.64 0.58 0.49 0.42 0.48 0.42 0.44 0.49 0.50 0.50 0.52 0.52 0.54 0.53 0.49 0.47 0.43 0.43 0.42 0.40 0.37 0.40 0.33 0.33 0.29 0.28 0.25 0.24 0.23 0.23 0.21 0.16 0.16 0.17 0.18 0.15 0.15 0.14 0.14 0.14 0.17 0.15 0.19 0.18 0.15 0.17 0.17 0.17 0.29 0.31 0.31 0.32 0.32 0.34 0.33 0.33 0.36 0.39 0.42 0.44 0.46 0.48 0.50 0.51 0.54
0.58 0.56 0.54 0.55 0.58 0.56 0.58 0.64 0.69 0.71 0.72 0.74 0.75 0.78 0.79 0.76 0.72 0.68 0.59 0.58 0.53 0.45 0.40 0.41 0.45 0.37 0.33 0.42 0.49 0.50 0.50 0.51 0.52 0.49 0.47 0.50 0.52 0.52 0.48 0.47 0.44 0.40 0.37 0.35 0.37 0.35 0.35 0.30 0.27 0.24 0.23 0.23 0.23 0.21 0.20 0.21 0.18 0.17 0.17 0.19 0.18 0.15 0.15 0.15 0.18 0.20 0.19 0.18 0.17 0.19 0.20 0.28 0.29 0.32 0.32 0.34 0.36 0.35 0.36 0.40 0.42 0.44 0.47 0.49 0.49 0.50 0.53 0.55
0.59 0.56 0.54 0.55 0.57 0.57 0.61 0.66 0.70 0.72 0.75 0.73 0.74 0.73 0.75 0.65 0.58 0.54 0.56 0.55 0.47 0.47 0.46 0.46 0.47 0.49 0.47 0.46 0.46 0.50 0.54 0.53 0.46 0.45 0.47 0.51 0.49 0.47 0.46 0.44 0.41 0.39 0.35 0.31 0.34 0.34 0.32 0.28 0.26 0.26 0.26 0.26 0.24 0.22 0.22 0.22 0.21 0.20 0.18 0.17 0.16 0.17 0.20 0.20 0.19 0.21 0.19 0.19 0.22 0.23 0.25 0.26 0.29 0.31 0.32 0.33 0.37 0.37 0.35 0.38 0.41 0.45 0.47 0.49 0.50 0.50 0.54 0.56
0.60 0.56 0.53 0.54 0.56 0.57 0.62 0.67 0.71 0.74 0.76 0.75 0.73 0.65 0.49 0.47 0.43 0.38 0.42 0.42 0.46 0.50 0.46 0.49 0.50 0.48 0.47 0.47 0.49 0.49 0.46 0.45 0.46 0.46 0.49 0.54 0.50 0.44 0.41 0.42 0.38 0.33 0.36 0.31 0.31 0.36 0.30 0.27 0.27 0.27 0.26 0.26 0.26 0.26 0.24 0.22 0.22 0.20 0.20 0.18 0.18 0.16 0.17 0.22 0.21 0.21 0.22 0.17 0.23 0.26 0.26 0.27 0.30 0.32 0.32 0.35 0.35 0.33 0.35 0.39 0.40 0.45 0.48 0.50 0.50 0.50 0.52 0.57
0.62 0.57 0.53 0.53 0.55 0.57 0.63 0.68 0.73 0.75 0.77 0.77 0.71 0.59 0.60 0.58 0.62 0.62 0.53 0.39 0.44 0.49 0.50 0.51 0.52 0.46 0.50 0.50 0.52 0.53 0.50 0.43 0.43 0.46 0.52 0.51 0.45 0.37 0.42 0.37 0.35 0.30 0.34 0.32 0.31 0.30 0.27 0.25 0.29 0.28 0.29 0.29 0.28 0.27 0.27 0.25 0.23 0.22 0.21 0.22 0.19 0.20 0.19 0.25 0.22 0.21 0.23 0.18 0.20 0.26 0.25 0.30 0.31 0.32 0.33 0.33 0.35 0.37 0.41 0.41 0.43 0.45 0.47 0.49 0.50 0.51 0.52 0.55
0.62 0.57 0.53 0.52 0.54 0.57 0.64 0.69 0.73 0.76 0.76 0.72 0.64 0.63 0.59 0.69 0.73 0.71 0.64 0.47 0.45 0.50 0.48 0.47 0.45 0.46 0.47 0.51 0.54 0.55 0.46 0.41 0.39 0.44 0.49 0.50 0.44 0.40 0.38 0.33 0.33 0.33 0.31 0.29 0.26 0.25 0.22 0.29 0.29 0.30 0.30 0.27 0.28 0.28 0.27 0.26 0.25 0.24 0.22 0.21 0.20 0.23 0.21 0.18 0.22 0.22 0.22 0.20 0.20 0.24 0.25 0.33 0.32 0.34 0.34 0.37 0.36 0.40 0.42 0.45 0.46 0.49 0.47 0.48 0.48 0.51 0.51 0.52
0.61 0.57 0.53 0.51 0.53 0.56 0.64 0.69 0.74 0.76 0.71 0.69 0.67 0.63 0.72 0.74 0.74 0.68 0.57 0.46 0.40 0.44 0.48 0.49 0.51 0.49 0.47 0.47 0.53 0.51 0.43 0.42 0.41 0.42 0.51 0.47 0.37 0.42 0.36 0.33 0.31 0.30 0.26 0.28 0.26 0.26 0.25 0.32 0.32 0.30 0.30 0.29 0.27 0.27 0.26 0.24 0.25 0.27 0.25 0.24 0.23 0.24 0.24 0.22 0.23 0.26 0.24 0.23 0.22 0.23 0.22 0.27 0.30 0.31 0.31 0.36 0.40 0.40 0.42 0.44 0.47 0.50 0.51 0.51 0.51 0.52 0.53 0.51
0.61 0.58 0.54 0.51 0.51 0.57 0.62 0.71 0.66 0.66 0.72 0.71 0.67 0.72 0.73 0.72 0.72 0.71 0.55 0.46 0.44 0.41 0.52 0.48 0.53 0.49 0.51 0.58 0.57 0.46 0.45 0.41 0.43 0.44 0.47 0.45 0.41 0.36 0.36 0.36 0.31 0.28 0.28 0.31 0.27 0.26 0.28 0.32 0.33 0.31 0.30 0.29 0.28 0.27 0.27 0.25 0.24 0.28 0.28 0.26 0.26 0.26 0.25 0.25 0.25 0.23 0.21 0.20 0.22 0.20 0.16 0.19 0.32 0.31 0.32 0.33 0.37 0.37 0.41 0.42 0.41 0.45 0.47 0.46 0.45 0.47 0.51 0.53
0.60 0.60 0.54 0.51 0.50 0.55 0.64 0.60 0.63 0.71 0.65 0.62 0.67 0.71 0.71 0.70 0.73 0.75 0.59 0.43 0.32 0.40 0.47 0.40 0.51 0.45 0.58 0.49 0.50 0.46 0.43 0.36 0.42 0.44 0.45 0.46 0.47 0.37 0.37 0.33 0.32 0.28 0.31 0.30 0.29 0.29 0.32 0.34 0.33 0.31 0.31 0.30 0.29 0.27 0.30 0.27 0.25 0.25 0.26 0.31 0.28 0.27 0.25 0.24 0.23 0.21 0.19 0.19 0.24 0.25 0.16 0.16 0.34 0.32 0.33 0.34 0.34 0.36 0.40 0.41 0.42 0.43 0.44 0.44 0.45 0.46 0.49 0.51
0.60 0.60 0.55 0.52 0.50 0.56 0.54 0.50 0.67 0.71 0.62 0.64 0.70 0.68 0.68 0.69 0.75 0.74 0.53 0.34 0.31 0.42 0.41 0.47 0.46 0.49 0.54 0.49 0.48 0.44 0.30 0.33 0.42 0.43 0.42 0.47 0.41 0.47 0.31 0.33 0.34 0.36 0.35 0.36 0.30 0.33 0.36 0.36 0.34 0.34 0.31 0.30 0.28 0.28 0.34 0.29 0.26 0.24 0.32 0.31 0.29 0.27 0.24 0.24 0.23 0.22 0.22 0.26 0.28 0.25 0.23 0.18 0.19 0.35 0.37 0.36 0.34 0.35 0.37 0.39 0.40 0.42 0.44 0.45 0.46 0.48 0.50 0.53
0.61 0.60 0.56 0.52 0.50 0.55 0.52 0.60 0.62 0.59 0.61 0.69 0.70 0.66 0.69 0.73 0.78 0.75 0.50 0.25 0.29 0.48 0.40 0.44 0.46 0.57 0.52 0.51 0.51 0.39 0.38 0.41 0.34 0.46 0.45 0.47 0.44 0.40 0.34 0.33 0.32 0.36 0.38 0.33 0.24 0.39 0.37 0.34 0.34 0.33 0.33 0.32 0.30 0.34 0.35 0.32 0.28 0.29 0.33 0.31 0.28 0.28 0.27 0.26 0.23 0.23 0.25 0.25 0.21 0.25 0.24 0.19 0.17 0.33 0.41 0.36 0.33 0.34 0.34 0.37 0.39 0.42 0.44 0.46 0.47 0.49 0.52 0.55
0.62 0.59 0.56 0.52 0.50 0.56 0.64 0.62 0.61 0.57 0.69 0.72 0.67 0.68 0.74 0.78 0.72 0.57 0.38 0.23 0.42 0.41 0.58 0.42 0.56 0.50 0.49 0.49 0.46 0.44 0.42 0.42 0.31 0.42 0.44 0.45 0.47 0.40 0.34 0.40 0.37 0.35 0.37 0.35 0.30 0.39 0.40 0.36 0.37 0.35 0.32 0.32 0.38 0.39 0.36 0.33 0.29 0.34 0.34 0.33 0.31 0.30 0.27 0.26 0.24 0.23 0.24 0.22 0.18 0.21 0.26 0.19 0.19 0.32 0.36 0.36 0.34 0.33 0.34 0.36 0.40 0.44 0.46 0.48 0.49 0.50 0.53 0.56
0.62 0.58 0.56 0.53 0.49 0.56 0.58 0.70 0.64 0.68 0.72 0.70 0.69 0.74 0.78 0.75 0.60 0.39 0.28 0.22 0.43 0.34 0.43 0.45 0.44 0.41 0.44 0.40 0.41 0.43 0.39 0.40 0.39 0.40 0.39 0.37 0.44 0.45 0.40 0.45 0.38 0.38 0.37 0.40 0.36 0.38 0.38 0.43 0.42 0.36 0.34 0.38 0.38 0.39 0.37 0.36 0.35 0.37 0.34 0.31 0.30 0.29 0.28 0.28 0.25 0.25 0.23 0.18 0.17 0.24 0.26 0.22 0.17 0.29 0.35 0.31 0.34 0.36 0.36 0.41 0.44 0.47 0.48 0.50 0.52 0.52 0.52 0.55
0.61 0.57 0.55 0.54 0.44 0.52 0.55 0.57 0.65 0.71 0.71 0.72 0.72 0.78 0.73 0.62 0.42 0.30 0.21 0.32 0.40 0.41 0.45 0.42 0.40 0.45 0.40 0.38 0.34 0.43 0.36 0.36 0.37 0.36 0.35 0.40 0.41 0.43 0.43 0.40 0.46 0.39 0.38 0.37 0.37 0.39 0.39 0.40 0.39 0.41 0.42 0.41 0.40 0.36 0.39 0.39 0.37 0.34 0.31 0.29 0.28 0.27 0.28 0.25 0.25 0.25 0.17 0.15 0.23 0.25 0.22 0.22 0.14 0.25 0.36 0.38 0.42 0.44 0.43 0.42 0.44 0.46 0.47 0.49 0.51 0.52 0.54 0.55
0.59 0.54 0.53 0.51 0.53 0.63 0.49 0.55 0.69 0.75 0.71 0.71 0.69 0.71 0.61 0.36 0.41 0.26 0.25 0.43 0.26 0.37 0.36 0.37 0.42 0.39 0.38 0.38 0.34 0.35 0.32 0.36 0.39 0.36 0.32 0.37 0.36 0.36 0.41 0.33 0.40 0.29 0.31 0.34 0.32 0.40 0.36 0.37 0.42 0.41 0.45 0.41 0.39 0.34 0.37 0.37 0.36 0.33 0.31 0.29 0.23 0.21 0.22 0.18 0.21 0.18 0.16 0.16 0.24 0.25 0.23 0.18 0.16 0.32 0.40 0.39 0.41 0.47 0.48 0.48 0.48 0.48 0.48 0.50 0.52 0.54 0.55 0.57
0.57 0.51 0.51 0.55 0.60 0.62 0.64 0.72 0.75 0.75 0.75 0.71 0.65 0.65 0.46 0.30 0.22 0.31 0.31 0.34 0.29 0.38 0.38 0.42 0.39 0.40 0.38 0.36 0.36 0.37 0.37 0.28 0.40 0.36 0.34 0.37 0.34 0.41 0.43 0.40 0.42 0.37 0.27 0.38 0.32 0.32 0.34 0.40 0.41 0.41 0.40 0.45 0.42 0.33 0.33 0.33 0.35 0.32 0.29 0.27 0.23 0.18 0.17 0.15 0.17 0.18 0.18 0.22 0.24 0.24 0.26 0.17 0.30 0.34 0.39 0.38 0.44 0.47 0.50 0.54 0.53 0.53 0.52 0.53 0.54 0.56 0.56 0.58
0.53 0.50 0.48 0.59 0.69 0.70 0.73 0.79 0.77 0.79 0.71 0.66 0.60 0.49 0.40 0.27 0.26 0.36 0.33 0.34 0.35 0.42 0.42 0.40 0.41 0.41 0.38 0.31 0.37 0.35 0.28 0.37 0.33 0.35 0.37 0.36 0.37 0.39 0.43 0.43 0.43 0.41 0.38 0.36 0.30 0.33 0.25 0.29 0.37 0.38 0.36 0.47 0.44 0.41 0.42 0.39 0.37 0.34 0.34 0.30 0.25 0.21 0.18 0.14 0.15 0.14 0.16 0.19 0.27 0.27 0.19 0.19 0.22 0.32 0.41 0.43 0.48 0.49 0.53 0.55 0.58 0.58 0.58 0.58 0.58 0.59 0.59 0.59
0.49 0.50 0.56 0.65 0.72 0.75 0.80 0.80 0.78 0.78 0.69 0.61 0.52 0.43 0.29 0.28 0.33 0.32 0.32 0.35 0.38 0.40 0.38 0.40 0.38 0.33 0.34 0.33 0.35 0.35 0.30 0.30 0.38 0.34 0.36 0.36 0.37 0.38 0.39 0.41 0.43 0.41 0.42 0.31 0.41 0.32 0.29 0.28 0.39 0.43 0.44 0.48 0.44 0.49 0.48 0.43 0.36 0.36 0.35 0.33 0.25 0.22 0.26 0.19 0.23 0.20 0.20 0.19 0.19 0.24 0.21 0.30 0.30 0.44 0.47 0.50 0.50 0.52 0.55 0.57 0.57 0.56 0.57 0.58 0.57 0.57 0.57 0.59
0.45 0.48 0.58 0.62 0.67 0.76 0.83 0.83 0.79 0.76 0.64 0.55 0.45 0.33 0.30 0.34 0.31 0.37 0.35 0.41 0.39 0.36 0.34 0.34 0.33 0.29 0.28 0.28 0.33 0.28 0.41 0.30 0.38 0.34 0.36 0.37 0.40 0.38 0.41 0.42 0.42 0.42 0.39 0.32 0.36 0.29 0.31 0.28 0.42 0.44 0.48 0.47 0.49 0.50 0.48 0.47 0.29 0.36 0.33 0.25 0.29 0.34 0.27 0.24 0.21 0.24 0.21 0.17 0.16 0.29 0.25 0.29 0.39 0.40 0.44 0.46 0.48 0.50 0.54 0.55 0.58 0.56 0.56 0.57 0.56 0.57 0.57 0.58
0.39 0.46 0.55 0.63 0.68 0.79 0.85 0.82 0.78 0.70 0.62 0.51 0.40 0.31 0.39 0.39 0.42 0.40 0.40 0.39 0.40 0.39 0.35 0.23 0.29 0.26 0.24 0.22 0.26 0.30 0.34 0.34 0.36 0.32 0.29 0.39 0.37 0.39 0.41 0.43 0.48 0.47 0.46 0.39 0.37 0.42 0.27 0.27 0.41 0.40 0.39 0.52 0.55 0.54 0.52 0.51 0.47 0.40 0.30 0.31 0.35 0.34 0.31 0.25 0.19 0.24 0.19 0.16 0.22 0.25 0.22 0.26 0.27 0.25 0.45 0.42 0.42 0.47 0.50 0.54 0.58 0.58 0.57 0.54 0.55 0.56 0.58 0.60
0.37 0.41 0.51 0.59 0.70 0.82 0.85 0.82 0.73 0.64 0.55 0.46 0.36 0.37 0.43 0.39 0.44 0.43 0.44 0.42 0.43 0.39 0.33 0.25 0.27 0.27 0.24 0.22 0.24 0.28 0.34 0.24 0.30 0.31 0.29 0.35 0.32 0.47 0.42 0.44 0.48 0.47 0.46 0.49 0.38 0.40 0.37 0.28 0.40 0.45 0.45 0.51 0.55 0.54 0.49 0.52 0.54 0.43 0.39 0.44 0.26 0.24 0.19 0.24 0.21 0.15 0.15 0.16 0.20 0.25 0.26 0.26 0.29 0.30 0.37 0.38 0.40 0.45 0.52 0.57 0.56 0.54 0.54 0.54 0.55 0.57 0.59 0.61
0.41 0.40 0.48 0.63 0.80 0.84 0.82 0.79 0.66 0.55 0.49 0.40 0.38 0.35 0.42 0.45 0.46 0.46 0.46 0.44 0.43 0.38 0.31 0.29 0.28 0.30 0.27 0.24 0.26 0.29 0.29 0.24 0.30 0.29 0.25 0.35 0.27 0.45 0.44 0.46 0.44 0.49 0.49 0.47 0.41 0.41 0.42 0.30 0.36 0.48 0.46 0.49 0.48 0.46 0.34 0.43 0.49 0.49 0.47 0.38 0.36 0.31 0.28 0.24 0.24 0.24 0.22 0.19 0.20 0.23 0.24 0.24 0.35 0.36 0.38 0.39 0.46 0.49 0.51 0.54 0.57 0.57 0.55 0.55 0.56 0.57 0.57 0.60
0.38 0.34 0.46 0.69 0.83 0.85 0.83 0.71 0.55 0.50 0.44 0.34 0.38 0.39 0.47 0.45 0.48 0.49 0.47 0.46 0.41 0.39 0.34 0.31 0.29 0.26 0.27 0.28 0.27 0.27 0.31 0.29 0.29 0.31 0.32 0.36 0.34 0.47 0.43 0.47 0.44 0.48 0.48 0.49 0.42 0.45 0.37 0.43 0.28 0.44 0.49 0.46 0.37 0.42 0.38 0.40 0.37 0.39 0.37 0.34 0.33 0.29 0.35 0.30 0.29 0.23 0.23 0.22 0.22 0.21 0.20 0.27 0.35 0.44 0.44 0.45 0.48 0.52 0.56 0.56 0.60 0.60 0.58 0.58 0.59 0.59 0.59 0.61
0.43 0.32 0.39 0.68 0.79 0.84 0.76 0.60 0.48 0.43 0.39 0.43 0.44 0.46 0.45 0.47 0.49 0.48 0.49 0.47 0.45 0.46 0.39 0.34 0.30 0.27 0.28 0.27 0.33 0.32 0.29 0.30 0.30 0.29 0.33 0.36 0.38 0.34 0.47 0.49 0.48 0.45 0.48 0.47 0.44 0.46 0.38 0.41 0.31 0.35 0.40 0.35 0.39 0.44 0.43 0.42 0.45 0.44 0.41 0.34 0.33 0.29 0.25 0.19 0.19 0.29 0.24 0.23 0.22 0.23 0.21 0.30 0.40 0.49 0.48 0.52 0.55 0.58 0.61 0.62 0.61 0.62 0.63 0.64 0.64 0.62 0.62 0.63
0.39 0.31 0.47 0.71 0.82 0.76 0.59 0.44 0.43 0.44 0.41 0.39 0.43 0.47 0.48 0.54 0.49 0.48 0.47 0.47 0.48 0.44 0.43 0.38 0.32 0.31 0.30 0.30 0.28 0.28 0.28 0.29 0.32 0.31 0.34 0.34 0.41 0.45 0.46 0.53 0.50 0.48 0.42 0.38 0.38 0.49 0.44 0.41 0.37 0.32 0.36 0.38 0.42 0.46 0.49 0.48 0.48 0.45 0.43 0.39 0.37 0.35 0.32 0.26 0.20 0.26 0.27 0.26 0.28 0.27 0.24 0.32 0.47 0.52 0.54 0.56 0.59 0.61 0.62 0.63 0.62 0.63 0.65 0.66 0.67 0.68 0.68 0.67
0.45 0.36 0.51 0.55 0.69 0.68 0.51 0.41 0.42 0.39 0.40 0.46 0.51 0.50 0.53 0.51 0.50 0.51 0.46 0.46 0.43 0.45 0.41 0.36 0.35 0.34 0.37 0.30 0.31 0.28 0.29 0.27 0.33 0.33 0.35 0.38 0.43 0.47 0.51 0.50 0.51 0.47 0.45 0.46 0.47 0.49 0.49 0.37 0.33 0.35 0.41 0.44 0.45 0.46 0.48 0.48 0.49 0.43 0.42 0.41 0.36 0.31 0.32 0.31 0.30 0.34 0.27 0.29 0.25 0.27 0.24 0.32 0.48 0.54 0.56 0.59 0.60 0.61 0.62 0.63 0.62 0.63 0.65 0.66 0.65 0.67 0.68 0.67
0.47 0.40 0.46 0.66 0.69 0.64 0.45 0.32 0.34 0.37 0.41 0.45 0.47 0.48 0.54 0.54 0.52 0.49 0.46 0.46 0.44 0.42 0.38 0.37 0.36 0.36 0.32 0.35 0.33 0.29 0.35 0.23 0.37 0.34 0.37 0.41 0.42 0.52 0.50 0.49 0.49 0.44 0.40 0.42 0.39 0.48 0.39 0.35 0.34 0.30 0.30 0.32 0.34 0.38 0.38 0.43 0.44 0.42 0.38 0.39 0.38 0.38 0.35 0.35 0.34 0.35 0.24 0.26 0.27 0.26 0.21 0.30 0.45 0.55 0.55 0.55 0.57 0.56 0.58 0.62 0.61 0.59 0.63 0.64 0.64 0.65 0.67 0.67
0.49 0.51 0.45 0.49 0.64 0.60 0.42 0.46 0.39 0.36 0.39 0.40 0.43 0.43 0.50 0.53 0.57 0.56 0.51 0.46 0.48 0.45 0.39 0.36 0.37 0.38 0.34 0.35 0.33 0.33 0.35 0.31 0.30 0.38 0.39 0.41 0.45 0.50 0.50 0.48 0.49 0.46 0.45 0.47 0.47 0.48 0.36 0.31 0.34 0.24 0.22 0.21 0.19 0.19 0.23 0.28 0.32 0.37 0.39 0.37 0.37 0.34 0.32 0.30 0.24 0.28 0.22 0.28 0.26 0.23 0.24 0.35 0.45 0.48 0.50 0.50 0.51 0.53 0.57 0.60 0.60 0.61 0.60 0.59 0.60 0.62 0.63 0.63
0.52 0.35 0.53 0.51 0.55 0.55 0.50 0.53 0.48 0.42 0.40 0.40 0.36 0.43 0.45 0.46 0.54 0.55 0.53 0.50 0.50 0.47 0.42 0.39 0.38 0.38 0.36 0.32 0.31 0.30 0.32 0.38 0.32 0.35 0.39 0.41 0.43 0.47 0.49 0.48 0.47 0.47 0.46 0.48 0.46 0.45 0.35 0.35 0.34 0.31 0.27 0.26 0.28 0.29 0.34 0.36 0.32 0.27 0.31 0.32 0.33 0.34 0.33 0.32 0.34 0.28 0.23 0.28 0.24 0.26 0.28 0.33 0.35 0.40 0.42 0.45 0.46 0.47 0.52 0.55 0.55 0.56 0.58 0.58 0.59 0.59 0.58 0.59
0.55 0.38 0.40 0.39 0.49 0.49 0.47 0.49 0.46 0.45 0.39 0.43 0.33 0.42 0.40 0.45 0.51 0.49 0.54 0.44 0.49 0.45 0.41 0.39 0.39 0.32 0.35 0.29 0.28 0.26 0.31 0.33 0.38 0.35 0.37 0.40 0.44 0.45 0.49 0.50 0.49 0.48 0.46 0.45 0.47 0.45 0.39 0.33 0.33 0.35 0.34 0.35 0.39 0.36 0.36 0.37 0.31 0.31 0.28 0.29 0.31 0.30 0.31 0.29 0.27 0.25 0.34 0.27 0.20 0.31 0.33 0.30 0.36 0.39 0.41 0.43 0.45 0.47 0.51 0.52 0.54 0.55 0.56 0.56 0.56 0.56 0.53 0.54
0.43 0.49 0.46 0.51 0.38 0.39 0.39 0.41 0.47 0.46 0.46 0.41 0.39 0.41 0.38 0.42 0.47 0.45 0.48 0.49 0.47 0.46 0.36 0.37 0.36 0.35 0.32 0.30 0.30 0.21 0.28 0.29 0.33 0.32 0.38 0.40 0.41 0.44 0.43 0.50 0.52 0.49 0.48 0.46 0.48 0.46 0.38 0.31 0.33 0.38 0.34 0.37 0.38 0.39 0.39 0.37 0.36 0.34 0.34 0.32 0.29 0.29 0.28 0.25 0.25 0.30 0.32 0.24 0.25 0.38 0.36 0.30 0.37 0.40 0.42 0.44 0.46 0.47 0.50 0.52 0.54 0.56 0.56 0.55 0.53 0.51 0.48 0.47
0.57 0.55 0.54 0.56 0.37 0.40 0.42 0.48 0.49 0.47 0.45 0.41 0.40 0.38 0.36 0.40 0.43 0.50 0.49 0.46 0.44 0.41 0.40 0.30 0.33 0.36 0.34 0.35 0.30 0.25 0.27 0.21 0.25 0.33 0.32 0.36 0.36 0.40 0.38 0.42 0.48 0.49 0.47 0.45 0.45 0.47 0.44 0.35 0.36 0.38 0.36 0.37 0.38 0.38 0.38 0.36 0.34 0.34 0.33 0.33 0.32 0.30 0.29 0.28 0.27 0.30 0.29 0.27 0.31 0.31 0.32 0.32 0.37 0.40 0.43 0.46 0.49 0.50 0.52 0.55 0.55 0.52 0.49 0.49 0.47 0.45 0.44 0.44
0.54 0.48 0.47 0.50 0.46 0.44 0.43 0.42 0.43 0.44 0.41 0.45 0.32 0.38 0.37 0.40 0.42 0.50 0.52 0.46 0.40 0.41 0.44 0.34 0.34 0.36 0.36 0.34 0.33 0.27 0.29 0.29 0.29 0.26 0.35 0.33 0.38 0.38 0.40 0.39 0.41 0.42 0.42 0.42 0.44 0.47 0.43 0.34 0.38 0.36 0.34 0.33 0.37 0.38 0.38 0.35 0.33 0.29 0.31 0.31 0.31 0.31 0.31 0.30 0.29 0.29 0.29 0.28 0.29 0.30 0.30 0.29 0.39 0.42 0.43 0.48 0.49 0.51 0.51 0.48 0.48 0.48 0.47 0.46 0.45 0.43 0.43 0.43
0.72 0.70 0.65 0.48 0.40 0.43 0.43 0.42 0.41 0.40 0.39 0.43 0.32 0.37 0.35 0.40 0.45 0.52 0.51 0.53 0.47 0.43 0.42 0.36 0.39 0.40 0.39 0.35 0.34 0.31 0.33 0.33 0.33 0.34 0.39 0.38 0.32 0.43 0.37 0.41 0.40 0.39 0.40 0.38 0.41 0.43 0.42 0.36 0.39 0.35 0.32 0.31 0.34 0.36 0.37 0.38 0.36 0.31 0.29 0.27 0.26 0.26 0.26 0.29 0.26 0.30 0.27 0.25 0.29 0.29 0.26 0.26 0.37 0.39 0.43 0.44 0.44 0.43 0.42 0.43 0.44 0.45 0.47 0.48 0.45 0.45 0.45 0.45
0.75 0.78 0.73 0.57 0.38 0.48 0.40 0.46 0.43 0.40 0.33 0.40 0.37 0.37 0.34 0.43 0.52 0.53 0.45 0.50 0.51 0.52 0.48 0.44 0.43 0.37 0.41 0.35 0.31 0.33 0.37 0.37 0.36 0.39 0.41 0.42 0.44 0.46 0.45 0.46 0.43 0.39 0.39 0.38 0.43 0.39 0.39 0.37 0.33 0.31 0.28 0.27 0.32 0.33 0.33 0.35 0.33 0.29 0.26 0.27 0.27 0.28 0.27 0.28 0.30 0.33 0.32 0.33 0.27 0.22 0.26 0.38 0.42 0.39 0.37 0.39 0.39 0.39 0.40 0.43 0.46 0.49 0.50 0.46 0.44 0.43 0.43 0.42
Wind_Speed
20 20 20 20 20 19 19 19 18 18 17 16 16 15 15 14 14 14 14 13 13 13 12 12 11 11 11 10 10 9 9 9 8 8 8 7 7 7 7 8 8 9 9 10 11 11 11 12 13 14 15 15 16 16 16 17 16 16 16 16 16 16 16 15 15 14 13 13 12 13 14 15 15 15 15 16 18 18 18 18 17 17 16 16 16 15 16 17
20 20 20 20 20 20 20 19 19 18 17 17 16 16 15 15 15 14 14 13 13 13 12 12 12 11 11 10 10 9 9 8 8 7 7 7 8 7 7 7 8 8 9 10 10 11 11 11 12 14 14 14 15 15 16 16 17 17 16 16 17 16 15 14 15 14 14 15 13 13 14 15 15 15 15 16 18 18 17 18 18 18 16 16 15 15 16 18
20 20 20 20 20 20 20 20 19 19 18 18 17 16 16 15 15 14 14 13 13 13 12 12 11 11 11 11 10 10 9 9 8 7 7 8 8 8 8 7 8 8 8 9 10 11 11 10 12 13 13 13 14 15 16 16 17 17 16 17 17 16 15 15 16 16 16 16 15 15 15 16 16 16 16 16 18 18 18 18 18 17 16 15 15 15 16 18
20 20 20 20 20 20 20 20 20 19 19 18 18 17 16 16 15 14 13 13 13 12 12 12 11 11 11 11 10 9 9 9 8 7 8 8 8 8 7 7 8 8 8 8 9 10 10 10 11 12 12 12 13 14 14 15 15 16 16 17 16 15 16 17 18 17 17 17 17 17 16 17 17 17 17 18 18 18 18 18 18 17 16 15 15 15 16 18
20 20 21 21 21 21 20 20 20 19 19 18 18 18 17 16 15 14 13 12 12 12 12 11 11 11 11 11 10 9 10 10 8 8 8 7 7 7 7 7 7 8 8 8 8 9 9 10 10 10 11 10 12 13 13 14 15 15 16 17 15 15 16 16 17 18 18 18 18 18 17 17 17 17 18 18 18 17 16 16 17 18 17 16 15 16 17 18
20 21 21 21 21 21 21 21 20 20 19 18 18 18 17 16 15 14 13 12 12 11 11 11 11 11 11 10 9 9 10 8 8 8 7 6 6 6 7 7 7 7 7 8 8 9 9 9 10 10 10 10 11 12 12 13 14 14 15 16 16 16 16 16 16 17 18 19 19 18 18 17 17 18 18 18 19 18 18 17 17 18 18 17 16 16 17 18
21 21 21 22 22 22 22 21 21 20 19 19 18 18 17 16 15 14 13 12 11 11 11 11 10 10 10 9 8 8 7 6 7 7 6 6 6 6 6 6 7 7 7 7 8 8 9 9 10 9 9 9 10 11 11 12 13 14 13 13 15 15 16 16 16 16 17 18 18 18 18 18 19 18 17 18 19 19 19 18 18 19 18 17 16 16 17 17
21 21 22 22 22 22 22 22 21 21 20 19 19 18 17 16 16 14 12 11 11 11 10 10 10 10 9 8 7 6 5 6 6 6 5 6 6 6 6 6 7 6 6 6 6 8 8 8 9 10 9 9 9 10 11 11 12 13 11 11 12 13 14 14 15 16 16 17 17 17 18 19 20 18 18 19 19 19 19 18 19 19 18 18 17 17 17 17
21 22 22 22 22 22 22 22 22 21 20 20 19 18 17 16 15 14 12 11 10 10 10 10 9 9 8 8 8 6 5 6 6 6 6 6 6 6 7 7 6 6 6 5 6 7 8 8 8 10 9 8 9 9 11 11 11 11 10 11 11 11 12 13 14 14 14 15 16 17 18 19 18 18 19 20 19 18 18 19 19 19 19 19 19 18 18 18
21 22 22 22 22 22 23 23 23 22 21 20 19 18 17 16 15 13 12 11 10 9 9 9 9 9 8 7 8 6 5 6 6 6 7 7 7 7 6 6 6 6 6 6 6 6 7 7 8 9 8 9 10 9 11 11 9 10 10 11 11 10 11 11 12 12 12 13 14 15 16 16 16 17 17 17 17 17 18 19 19 20 20 20 20 20 19 19
21 22 22 23 23 23 24 24 23 22 22 21 19 18 17 15 15 13 11 10 10 9 8 8 8 8 7 7 7 5 5 6 5 6 7 7 7 7 6 6 6 7 7 6 6 6 7 7 7 9 8 9 9 9 10 10 10 10 11 11 10 10 10 10 11 11 12 12 12 14 14 14 16 17 16 15 17 18 19 19 20 21 21 21 21 21 21 20
21 22 23 23 24 24 24 25 24 23 22 21 19 18 17 15 14 12 11 10 9 8 8 7 8 7 6 5 5 4 5 6 6 6 6 7 7 7 7 7 7 7 7 7 7 7 7 7 8 8 8 9 9 9 9 10 11 11 11 11 10 11 11 10 10 11 12 11 11 13 14 15 15 15 16 16 18 19 20 20 20 21 21 21 21 21 22 21
22 23 23 24 24 24 25 25 25 24 22 20 19 18 16 15 14 12 10 9 8 8 7 7 7 6 5 4 3 3 5 5 5 6 6 7 7 7 7 7 7 7 7 8 7 8 8 7 8 7 7 9 8 8 8 9 11 11 12 12 10 11 11 10 10 11 12 11 11 13 13 14 13 13 14 15 17 19 21 22 21 21 21 21 21 21 22 22
22 23 24 24 25 25 25 26 25 24 22 20 19 17 16 15 13 11 9 8 8 7 7 7 6 6 5 3 3 4 4 4 5 5 6 6 7 7 7 7 7 7 7 7 7 8 8 8 8 7 7 8 8 8 9 9 10 10 11 11 11 11 10 9 10 11 11 11 11 13 13 12 11 12 13 14 15 17 19 20 21 20 20 21 21 21 22 23
22 23 24 25 25 25 26 26 26 24 22 20 18 17 16 14 12 9 8 7 7 7 7 7 6 6 5 3 4 4 4 4 5 5 5 6 6 6 6 6 7 7 7 7 7 7 8 8 8 8 7 8 8 9 9 9 10 10 10 10 11 11 10 9 10 11 11 11 12 13 13 11 10 11 12 13 14 15 17 18 19 19 20 20 20 21 21 22
23 24 24 25 26 26 26 26 26 24 21 19 18 16 15 13 10 8 7 7 7 6 6 6 6 6 5 4 4 4 4 5 5 5 5 5 6 5 5 6 6 6 6 7 7 7 7 7 7 7 8 8 9 9 9 9 9 10 10 9 9 11 10 9 9 10 11 11 12 14 14 11 10 11 11 12 13 14 15 15 16 18 18 20 20 21 21 22
23 24 25 25 26 26 26 26 25 22 20 19 17 15 14 11 9 7 6 7 7 6 6 6 5 6 5 4 4 5 6 6 6 5 5 5 6 5 5 6 6 6 6 6 7 7 7 7 7 7 8 8 8 8 9 9 8 8 10 9 9 10 10 9 8 9 11 11 11 13 13 11 11 11 11 11 11 12 14 14 15 16 17 18 20 21 21 21
23 24 25 25 26 26 26 25 23 21 20 18 16 14 13 10 8 7 7 7 6 5 6 5 5 5 4 4 6 6 7 7 6 6 5 5 5 5 5 5 6 6 7 7 7 7 8 7 8 8 8 8 8 8 8 8 7 7 8 8 9 10 10 9 8 8 10 11 11 12 12 10 11 11 11 10 10 10 12 13 14 15 15 17 18 20 21 21
23 24 25 25 25 25 25 24 21 20 19 18 16 13 12 10 8 7 7 7 6 5 5 5 5 6 5 5 6 7 7 7 6 5 5 5 5 5 5 5 6 7 7 7 7 7 8 8 8 8 8 7 7 7 7 7 7 8 8 8 8 9 10 9 8 8 9 10 10 11 10 9 10 11 10 10 10 10 10 12 13 14 15 15 17 18 20 21
23 24 25 25 25 25 25 23 20 19 18 17 15 13 12 11 8 6 7 6 5 5 5 5 5 6 6 5 7 7 6 5 5 4 4 5 5 6 5 6 7 7 7 7 7 7 8 9 8 7 7 6 7 8 8 7 8 9 9 9 9 9 10 10 10 9 10 11 10 10 10 9 10 10 10 10 10 10 9 10 12 12 14 14 15 17 18 19
23 24 24 25 24 24 24 21 19 19 18 16 15 13 12 12 9 8 8 6 4 5 5 5 6 6 6 6 6 6 4 4 3 3 4 4 6 6 6 6 7 7 6 7 7 7 8 8 6 6 6 7 7 8 9 9 9 9 9 9 10 11 10 10 10 10 11 12 10 10 10 9 10 10 10 10 10 9 9 9 10 11 13 14 14 15 17 18
23 24 24 24 24 24 22 20 18 17 17 16 15 13 12 12 10 9 8 6 4 5 5 4 5 5 5 5 4 4 4 3 3 3 4 5 6 6 6 6 7 6 6 7 7 6 7 6 5 6 7 7 7 8 9 9 10 10 10 10 10 10 10 10 11 11 11 12 11 12 12 10 11 11 10 10 10 9 9 9 9 10 12 13 13 14 15 17
23 23 24 24 23 23 21 19 18 16 16 15 14 13 12 12 10 8 7 5 4 4 3 3 3 3 3 3 3 3 4 4 4 3 4 6 6 6 6 6 6 6 6 6 6 6 6 5 5 7 7 8 8 7 8 9 10 10 10 10 10 9 10 11 10 11 12 12 12 12 13 12 11 11 11 11 11 10 10 9 9 10 11 11 12 13 14 15
23 23 23 23 23 22 20 19 17 15 15 15 14 13 13 12 10 7 5 5 4 3 3 2 2 3 3 3 3 4 4 4 5 5 5 6 6 6 6 6 6 6 5 5 6 7 6 5 6 7 7 8 8 8 9 9 9 10 11 11 10 10 11 10 9 10 12 13 14 13 14 14 13 13 12 12 12 11 11 10 9 9 10 11 12 12 13 14
23 22 23 23 22 22 20 17 16 15 15 13 13 13 13 13 10 6 5 4 3 3 2 2 2 3 4 4 4 5 5 5 5 5 5 6 6 5 5 5 5 5 4 5 7 7 6 5 7 8 7 8 9 8 9 9 9 9 10 11 11 11 11 11 11 11 12 13 14 14 15 14 13 13 13 13 13 12 11 11 10 10 10 11 12 12 13 14
23 22 22 22 21 22 19 15 15 16 14 12 12 13 13 12 9 6 5 4 3 3 3 3 3 4 5 5 5 6 6 4 5 5 5 5 5 5 5 4 5 5 5 6 7 7 6 6 7 8 8 9 9 9 8 9 10 9 8 9 10 11 11 11 12 12 12 11 11 13 14 13 13 13 13 14 13 12 12 11 10 11 11 12 12 12 13 14
22 21 21 21 21 20 17 14 16 15 13 12 12 13 12 11 8 6 5 4 4 4 5 4 5 6 6 6 6 6 5 4 5 5 5 5 5 5 5 5 6 5 6 6 6 6 6 7 8 9 9 9 9 9 7 8 10 8 6 8 10 10 11 11 12 12 12 11 11 13 15 14 14 12 11 13 13 12 12 11 11 11 12 12 12 13 13 14
22 21 21 20 20 19 16 15 16 14 13 13 12 13 12 9 7 6 5 5 5 5 5 5 5 6 6 5 5 5 5 5 6 5 5 5 5 5 6 6 6 6 6 7 6 5 7 8 8 8 9 9 8 8 7 9 9 7 7 9 9 9 10 10 11 12 11 12 13 14 14 15 14 12 11 12 13 11 11 12 11 12 12 13 13 13 14 14
22 21 20 20 19 17 15 15 14 13 13 12 12 12 10 8 7 6 6 5 5 5 6 6 5 5 6 5 5 5 5 6 7 6 5 6 5 6 7 6 7 7 7 8 7 6 7 7 8 8 9 8 8 8 8 10 9 7 8 9 9 9 9 10 10 11 11 12 14 13 13 13 12 11 10 10 11 11 12 12 11 12 12 13 14 14 14 15
22 21 20 20 17 15 14 14 13 13 13 12 12 11 9 7 7 6 6 5 5 5 6 7 6 6 6 5 5 5 6 6 7 7 6 5 6 6 6 6 8 7 7 8 8 7 7 7 7 8 8 8 9 9 9 10 9 7 8 8 8 8 8 9 10 10 11 12 13 11 12 13 12 10 9 9 10 10 11 11 11 11 12 12 14 14 15 15
21 20 20 18 16 14 14 13 12 12 12 12 11 10 8 7 7 7 6 6 6 6 6 6 5 5 6 6 6 6 6 6 7 7 6 5 6 6 6 7 7 7 8 7 7 7 7 6 6 6 7 8 9 9 8 9 9 8 8 8 8 8 8 8 8 9 10 10 9 9 11 13 13 10 7 8 8 8 9 10 10 10 11 11 13 14 15 16
21 20 20 17 15 14 13 12 12 13 12 12 10 9 8 7 7 7 6 6 7 7 6 6 6 6 6 6 6 6 6 7 7 7 6 6 6 6 7 7 6 7 7 6 6 7 7 5 5 6 6 7 8 8 7 8 8 8 8 8 8 8 7 8 8 8 9 8 6 7 9 12 11 8 7 7 7 7 8 9 9 10 10 10 11 12 14 15
21 20 19 16 13 12 12 12 12 12 12 11 9 8 8 8 7 7 7 6 7 7 6 6 6 6 6 7 6 6 7 7 7 7 7 7 7 6 6 6 7 7 7 7 7 7 5 5 5 6 6 6 7 7 7 7 7 8 8 8 8 7 7 8 8 8 8 7 6 7 8 10 9 8 8 7 7 8 9 9 9 9 9 9 10 11 12 13
20 20 17 14 12 11 11 11 11 12 11 10 8 8 8 8 7 7 7 7 6 6 7 7 6 6 6 6 6 7 7 6 7 8 7 7 7 6 6 6 6 7 7 7 6 6 6 5 5 5 6 6 7 7 7 7 8 8 8 8 8 7 7 7 6 6 6 6 5 6 7 8 8 7 8 8 8 8 9 9 9 9 9 9 9 10 11 12
19 18 15 12 11 10 10 11 11 11 11 9 8 8 8 8 7 7 7 7 6 6 7 7 7 7 6 5 6 7 7 7 7 8 7 7 7 7 7 6 6 6 7 6 5 5 7 5 4 5 6 6 7 7 7 8 8 7 7 8 8 7 6 6 6 6 6 7 6 7 7 6 6 7 8 8 8 7 7 8 9 9 9 9 9 9 10 11
17 15 13 11 10 10 10 10 10 10 10 9 8 8 8 8 8 7 7 7 7 7 7 6 6 7 6 5 5 6 7 7 8 8 7 8 7 7 7 6 5 5 5 5 4 5 6 5 4 5 6 6 7 7 7 8 7 6 7 8 6 5 6 6 5 5 6 8 6 6 7 6 6 8 8 9 8 7 6 7 8 9 9 9 9 9 9 10
16 14 12 10 10 10 10 10 10 10 9 9 8 8 8 8 8 7 7 7 7 7 7 6 6 7 6 6 6 6 7 8 8 8 8 7 7 6 5 4 4 4 4 4 4 4 6 6 5 6 6 6 7 8 7 7 8 7 7 6 5 5 7 6 6 5 6 7 6 6 8 8 7 7 7 8 9 8 7 6 7 8 8 8 8 8 9 9
15 13 11 10 10 10 9 9 10 10 9 9 8 8 8 7 7 7 6 6 7 7 7 7 6 6 6 6 6 7 9 9 8 8 8 7 6 5 4 3 3 3 3 4 4 4 6 6 4 5 6 6 6 8 7 7 9 9 7 6 6 6 6 6 6 6 6 6 5 5 6 7 7 6 7 8 8 8 6 6 7 8 7 7 7 7 7 7
14 12 10 10 10 9 9 9 10 9 9 9 8 7 7 7 6 7 6 6 7 7 7 7 6 6 6 7 7 7 8 9 8 8 7 6 4 3 3 2 2 2 2 4 4 4 5 5 4 5 7 7 6 7 6 5 8 9 8 8 8 6 5 5 5 5 4 4 3 3 3 3 3 4 7 7 7 7 6 5 6 7 7 7 7 6 6 7
13 12 10 10 10 9 9 10 9 9 8 8 8 7 7 7 6 6 6 6 6 7 7 6 6 6 6 7 7 7 8 8 7 7 6 4 2 1 1 1 1 1 2 3 4 3 4 5 5 5 6 6 5 5 5 4 6 8 9 8 8 7 6 5 5 4 4 4 2 2 2 1 1 2 5 6 6 7 5 4 5 6 7 7 7 6 6 7
13 12 10 10 10 9 10 10 9 8 8 8 8 7 7 7 7 6 6 6 6 6 7 6 6 6 6 6 7 7 8 7 6 6 4 1 1 1 2 1 0 1 2 3 3 3 4 4 5 5 5 5 4 5 4 4 5 6 8 7 7 7 7 6 5 4 4 4 2 2 2 1 1 1 3 4 5 6 5 4 5 6 7 7 7 6 6 6
12 12 11 10 10 10 10 10 8 8 8 8 7 7 7 8 7 6 6 6 6 6 6 5 6 6 6 7 7 7 8 7 6 5 3 0 2 2 2 1 1 2 3 3 3 3 4 4 5 5 5 5 4 4 3 3 4 5 7 6 6 6 7 6 4 2 3 3 2 2 2 1 2 3 4 5 5 6 5 5 5 6 6 7 7 6 5 5
12 12 11 11 11 10 11 10 8 8 8 8 8 7 7 7 7 6 6 6 5 5 5 5 5 6 6 7 7 7 7 6 5 4 2 1 3 2 1 0 2 2 3 3 2 2 3 4 4 4 4 4 3 2 2 2 3 5 6 6 6 6 6 5 3 2 2 3 2 2 1 2 3 4 5 5 6 6 5 5 5 6 6 6 6 6 5 5
13 13 12 11 11 10 10 10 8 8 8 8 8 7 7 7 7 7 7 6 5 5 5 5 5 5 6 6 7 7 6 6 4 3 1 2 3 2 0 1 2 2 3 3 3 2 3 4 4 4 4 4 3 2 0 2 3 5 5 5 5 6 6 5 4 3 3 3 2 2 1 3 4 4 4 5 6 5 5 5 5 5 5 5 5 5 4 4
13 13 12 11 11 10 10 10 9 9 8 8 8 8 7 7 7 8 8 7 6 6 5 5 5 5 5 6 6 6 6 5 4 2 1 2 3 2 1 1 2 2 3 2 2 2 3 4 4 5 5 5 4 3 1 0 2 4 4 5 5 5 6 5 4 4 4 3 3 2 1 3 4 4 4 5 5 4 5 5 5 5 4 4 4 3 3 3
13 12 11 11 10 10 11 10 10 10 8 8 8 8 8 8 7 7 7 7 6 5 5 4 4 5 5 6 6 6 5 4 4 2 2 3 3 2 1 2 2 1 1 1 1 2 3 4 5 6 6 6 5 4 3 1 0 2 3 5 5 5 6 6 5 4 3 2 3 2 0 2 3 4 5 5 5 5 5 5 4 4 4 3 3 2 2 2
13 12 11 11 10 10 10 10 10 9 8 8 8 7 8 8 7 6 6 7 6 5 5 4 4 5 5 6 7 6 5 4 3 3 3 4 4 2 2 2 2 1 1 1 1 1 2 3 4 5 6 6 5 4 3 2 1 1 2 4 5 5 6 7 7 4 2 3 2 1 0 1 2 4 5 5 5 5 5 5 4 3 3 2 2 1 1 1
13 12 11 11 11 10 10 10 10 9 9 9 8 8 8 9 8 7 6 6 5 5 5 5 5 6 6 6 6 6 5 5 4 3 4 4 5 4 3 3 2 2 2 1 0 1 2 2 3 3 4 5 4 4 3 3 2 1 1 3 5 6 6 7 8 6 5 5 3 1 2 2 1 3 5 5 5 5 5 4 4 3 3 3 2 2 3 3
13 13 12 12 12 11 10 10 10 11 10 9 9 9 9 9 9 8 7 6 6 6 6 6 5 6 6 6 6 6 5 5 5 4 4 5 5 5 4 3 2 3 3 1 0 1 2 2 2 3 3 4 4 4 3 3 2 1 1 3 5 6 6 7 7 7 7 8 6 5 5 4 2 3 4 4 5 5 5 5 4 4 4 4 4 4 4 4
14 13 12 12 13 12 11 11 11 11 10 10 9 9 9 9 9 8 7 7 7 6 6 6 6 5 6 6 6 6 6 6 6 5 5 6 6 6 5 4 3 3 3 2 1 1 1 1 1 2 2 3 4 4 3 2 2 2 1 1 3 5 6 6 7 7 8 8 8 7 7 6 4 4 4 4 5 5 6 6 6 6 5 5 6 5 5 5
15 14 13 13 13 12 12 11 11 12 11 10 10 9 9 9 9 8 7 8 8 6 6 6 6 5 6 6 7 7 7 6 7 6 6 7 7 6 5 5 4 3 3 2 2 1 1 1 0 1 2 3 3 3 3 2 2 2 1 1 2 4 5 5 5 6 7 7 7 7 7 6 5 5 5 6 6 7 7 7 7 6 6 6 6 5 5 5
16 16 15 14 14 12 12 12 12 12 11 11 10 9 9 9 8 7 7 7 7 7 6 6 6 5 6 7 7 7 7 6 6 6 6 7 8 7 6 5 5 4 3 3 3 2 2 2 1 2 2 2 3 3 3 2 2 2 2 2 2 2 3 4 4 5 7 7 7 7 7 5 5 7 7 7 7 8 8 7 7 7 7 6 6 5 5 5
Wind_Direction
353 352 351 350 349 348 346 343 340 339 336 332 328 326 323 318 312 309 306 305 303 300 299 299 298 298 298 296 293 287 282 276 268 267 269 270 265 259 256 253 251 250 250 247 241 238 235 232 229 227 229 230 233 232 230 233 233 234 238 240 243 243 244 243 239 240 242 243 241 242 242 242 243 241 243 245 244 244 247 248 247 247 248 247 248 252 243 230
352 351 351 350 349 348 347 345 341 340 338 334 331 328 325 321 315 310 306 304 302 300 299 298 297 297 296 294 290 285 281 272 265 270 277 271 259 255 256 254 254 253 253 251 245 241 236 231 226 227 230 230 233 231 229 232 233 235 239 242 244 244 246 245 243 242 243 244 243 242 243 244 244 244 246 247 245 243 246 247 245 245 246 245 246 249 238 227
350 350 350 349 349 348 347 345 342 340 338 335 333 330 326 322 317 312 307 304 303 301 299 298 297 297 295 293 287 282 277 265 265 279 281 268 256 255 256 256 257 256 257 256 249 245 241 230 225 228 230 231 233 230 231 232 232 237 241 243 245 247 248 247 246 246 245 246 246 246 245 246 246 247 248 248 248 246 247 247 244 242 244 247 246 244 234 227
349 348 348 348 348 347 346 345 342 339 337 335 333 331 328 324 320 315 309 304 303 302 300 298 297 297 295 292 284 278 270 262 272 285 276 263 255 255 256 257 258 258 258 255 248 243 238 228 226 229 230 232 231 229 232 231 234 240 240 246 250 249 250 248 247 247 247 248 249 250 248 248 249 249 248 248 248 246 245 245 243 243 247 253 249 239 234 231
348 348 347 346 346 345 344 344 342 339 336 335 333 332 330 326 323 319 313 307 304 303 302 300 297 297 296 291 282 273 267 265 277 281 270 258 253 253 255 257 258 261 258 250 244 235 229 225 226 230 231 231 228 230 233 230 237 242 241 249 255 252 251 250 249 248 248 248 249 250 250 250 250 249 248 248 246 243 244 244 243 244 247 252 248 239 235 235
348 348 347 345 344 343 342 342 341 339 336 334 333 332 330 326 323 320 315 310 306 304 304 303 300 298 297 292 281 270 267 270 279 275 262 250 247 250 253 255 258 259 255 246 239 232 227 226 228 232 231 230 231 233 234 231 238 245 244 249 252 251 252 252 251 250 249 249 248 248 249 249 249 250 249 247 246 245 247 248 247 245 245 247 245 238 236 236
347 346 345 345 344 343 341 340 340 338 335 333 332 331 329 327 322 318 314 311 309 306 305 305 303 300 297 290 277 269 269 276 278 266 249 241 242 248 251 255 258 258 257 248 238 233 230 231 231 232 233 233 236 235 234 233 238 247 248 246 249 251 252 253 254 252 250 249 248 248 249 248 248 250 249 247 247 247 247 248 247 244 241 241 240 237 236 237
345 345 345 344 343 342 341 340 339 337 334 332 330 329 328 327 323 318 313 311 310 307 306 306 305 303 297 285 271 269 278 282 272 254 240 240 242 248 253 257 260 259 260 254 244 239 235 235 232 234 239 238 238 235 232 232 236 247 248 245 249 251 252 254 254 253 251 249 248 247 248 248 248 250 251 248 248 248 248 247 244 242 239 237 237 237 236 237
344 345 345 344 344 342 341 340 339 337 333 331 329 327 326 325 324 318 312 310 308 308 308 307 307 305 295 281 271 269 283 282 267 254 248 249 250 252 256 258 261 259 256 255 251 244 239 241 236 239 243 236 238 236 231 235 239 244 246 245 249 250 253 254 253 253 250 249 247 246 247 248 248 250 250 247 249 252 251 248 244 241 238 236 236 236 235 236
344 345 344 344 343 342 341 340 339 337 334 331 329 326 324 323 322 319 312 308 306 307 308 309 312 309 296 278 271 268 275 277 267 259 255 256 256 256 258 260 262 260 254 251 252 250 244 243 238 240 243 237 241 239 235 245 246 242 247 249 250 251 251 252 251 250 250 249 246 246 246 245 245 245 246 246 252 256 251 248 244 241 239 237 235 235 234 234
344 344 343 343 343 341 340 339 338 336 333 331 329 326 323 321 319 317 312 307 306 306 307 309 314 316 301 281 276 268 266 274 270 262 258 258 259 261 262 260 261 261 255 250 253 253 247 244 239 241 244 240 239 238 239 249 248 244 250 250 247 250 251 251 250 249 252 249 245 247 247 244 241 242 249 256 257 254 250 246 243 241 240 239 236 234 233 233
343 343 342 342 341 340 339 338 337 335 333 330 329 327 324 321 318 314 309 306 305 305 307 308 313 319 306 290 291 275 265 274 273 264 261 260 261 264 264 262 262 262 257 252 250 250 249 247 245 244 244 242 240 241 243 247 248 246 250 251 247 250 253 252 253 253 254 252 248 250 249 243 241 246 256 261 258 254 250 245 242 241 240 238 236 235 232 232
342 342 341 341 340 340 339 338 337 335 332 329 329 327 325 322 317 312 307 304 303 302 303 305 311 313 304 302 310 288 277 280 274 267 264 261 262 265 266 265 263 260 257 255 250 248 249 250 251 247 245 246 244 246 247 246 248 247 248 254 254 252 251 250 257 256 252 254 253 252 252 244 242 253 260 261 258 255 250 244 243 242 239 237 236 235 234 233
341 341 341 341 340 340 339 339 338 336 332 329 328 327 326 323 318 312 305 302 302 299 298 300 306 305 302 310 307 292 290 286 278 273 268 264 262 262 264 265 263 260 256 255 250 248 250 251 250 244 244 252 249 246 247 244 247 250 250 253 253 252 248 247 257 258 251 252 251 251 253 247 248 258 262 262 259 254 248 244 244 243 238 236 235 235 234 233
341 341 341 341 341 340 340 340 338 336 333 330 328 327 326 324 319 312 305 305 303 298 295 294 298 297 295 302 301 295 292 287 286 282 274 269 263 259 263 263 260 258 253 251 249 250 252 248 247 244 245 252 249 246 247 247 249 251 251 249 248 249 250 249 255 258 255 251 247 246 251 249 254 264 264 263 259 251 248 245 245 244 239 237 235 234 234 233
340 340 341 342 341 341 341 341 340 338 336 333 329 327 326 325 321 313 309 311 306 298 293 290 292 293 293 299 295 291 294 294 291 285 277 274 269 265 267 263 259 256 250 249 249 250 250 247 247 251 250 250 251 252 250 251 249 248 252 250 245 247 251 250 250 255 255 252 244 243 252 256 258 265 266 265 261 251 248 247 246 244 240 237 235 233 234 233
339 340 341 342 341 341 342 342 342 342 340 338 336 332 329 326 320 313 309 310 306 298 294 293 290 291 295 293 286 293 301 298 291 285 279 274 272 272 270 263 261 257 249 247 247 247 247 247 248 251 252 253 255 255 252 251 249 247 251 251 249 251 254 250 248 253 252 251 246 242 252 260 258 262 265 266 266 255 248 247 245 243 241 237 234 233 233 233
339 340 341 342 342 342 343 343 343 344 344 343 342 341 339 332 320 313 311 308 303 293 292 290 283 288 294 285 290 302 304 297 287 280 276 271 269 272 273 268 267 261 250 246 248 251 249 249 253 253 250 251 252 255 258 257 255 252 251 252 250 248 251 250 249 256 254 250 246 244 249 254 256 260 262 264 265 258 250 247 244 241 239 236 234 233 232 231
339 340 342 343 342 343 345 345 345 346 346 346 347 347 346 341 326 318 318 307 295 292 295 290 282 289 296 295 301 304 301 294 282 273 271 267 264 266 272 272 270 266 259 254 254 258 257 252 253 252 249 252 256 261 267 267 261 260 259 259 254 245 244 248 253 259 258 250 245 248 249 251 256 258 261 262 259 257 252 245 243 239 237 236 233 232 232 231
339 340 342 343 342 344 346 346 347 348 349 351 349 346 346 345 337 333 330 312 302 306 303 298 290 288 294 303 307 306 299 286 281 278 269 266 264 259 265 272 269 263 266 268 264 264 262 254 250 252 256 261 263 263 265 265 260 260 259 255 253 251 248 248 252 255 255 251 248 250 250 249 256 258 260 261 257 257 255 247 243 238 235 234 233 232 231 231
339 339 341 343 342 344 346 347 347 348 351 353 352 351 351 349 344 340 335 322 315 311 300 300 295 290 299 307 310 314 304 279 284 289 275 272 265 258 263 272 271 265 269 273 268 262 257 252 250 258 264 263 263 260 258 258 256 256 257 254 251 253 252 249 252 253 252 251 247 243 245 246 252 257 257 257 255 254 255 251 246 240 234 232 232 231 230 230
338 338 341 342 342 344 346 347 347 347 350 353 355 358 357 352 346 339 332 325 327 313 300 300 292 291 303 309 312 310 300 288 289 289 285 278 268 269 273 272 277 278 272 266 260 254 251 252 258 262 261 258 261 260 255 254 253 254 255 256 256 254 254 253 251 251 249 250 247 239 242 246 249 253 254 253 250 247 248 251 249 243 236 233 233 232 231 231
337 337 340 342 342 344 346 347 347 346 349 353 357 360 357 352 345 338 329 325 336 326 310 304 296 302 310 321 325 304 303 309 302 299 295 280 273 283 280 275 283 279 269 268 265 260 254 258 267 262 257 253 254 255 254 253 252 254 254 257 259 254 258 259 249 246 246 250 252 244 244 247 247 248 248 248 246 243 243 246 248 245 239 237 236 233 231 230
337 337 340 341 342 343 344 345 346 346 348 350 355 358 355 352 347 343 337 335 350 355 342 332 323 334 333 323 315 305 315 318 309 311 300 284 281 283 282 286 285 271 270 280 273 267 262 266 268 261 257 255 255 252 252 256 256 254 255 259 260 254 260 264 250 245 247 249 250 247 248 247 243 243 244 245 243 241 243 246 249 247 241 238 236 233 231 228
336 337 339 340 341 342 342 344 348 348 345 346 352 354 352 352 350 347 346 350 9 12 357 341 329 338 332 311 303 304 307 309 313 315 299 288 284 281 283 285 281 278 280 275 270 268 267 267 265 261 258 257 258 255 255 262 264 259 255 258 263 260 259 258 249 249 252 249 243 244 251 247 238 239 243 243 241 240 243 246 251 251 244 240 238 235 232 229
334 336 338 339 341 342 341 344 349 347 344 346 351 350 350 352 352 351 347 350 11 1 341 327 319 325 319 307 308 304 295 300 319 316 298 288 284 283 282 272 277 288 283 274 275 273 266 262 264 266 264 258 259 261 260 264 267 264 257 257 263 263 259 256 252 251 253 253 243 242 252 251 238 236 240 241 238 238 241 245 251 253 246 242 240 237 234 231
332 334 336 338 340 342 343 343 344 345 346 349 349 348 350 351 353 355 341 341 2 344 330 327 321 324 320 310 310 304 300 309 314 316 308 292 284 279 279 278 279 282 279 279 279 273 268 264 262 265 265 261 261 262 260 264 269 268 259 260 261 259 256 255 254 253 255 257 251 244 248 254 248 241 240 238 234 235 241 245 252 253 248 243 240 238 235 231
330 332 334 336 337 339 340 340 341 345 348 349 346 346 348 348 350 347 331 341 357 336 329 334 322 323 323 311 309 310 316 313 305 316 316 296 286 275 276 286 286 281 276 277 279 276 275 274 271 268 266 263 264 266 266 266 269 268 264 265 263 260 259 257 256 257 258 258 256 247 242 250 252 242 237 237 234 238 245 247 252 253 249 245 241 238 235 231
329 330 332 333 334 336 337 338 340 343 347 348 345 345 346 344 346 337 327 338 344 328 329 333 320 319 320 308 310 314 313 311 310 313 303 289 289 283 282 289 287 283 276 274 278 278 278 282 280 272 267 267 269 269 268 266 268 268 264 263 261 260 260 259 260 261 257 257 258 249 238 247 251 236 233 238 239 246 249 247 251 251 248 245 242 238 234 231
327 327 329 331 332 334 335 337 337 339 345 346 345 345 342 341 338 328 330 338 336 330 325 325 319 317 315 303 307 316 311 314 315 306 294 287 287 284 286 288 284 282 278 274 273 275 281 280 273 269 271 275 273 270 267 265 266 264 258 256 255 256 257 260 262 262 260 257 255 245 238 248 251 237 235 242 243 250 250 244 247 248 246 244 241 238 234 231
325 325 327 328 329 331 332 335 339 340 342 344 345 344 339 339 331 326 338 337 329 331 324 325 328 320 316 309 307 313 312 316 314 303 294 288 285 285 285 284 284 282 278 272 270 274 275 267 264 270 280 281 271 265 263 259 258 257 255 254 254 254 255 258 255 252 258 257 247 241 242 246 246 237 236 241 243 248 246 242 243 245 244 242 240 238 233 229
323 323 324 324 323 325 327 332 338 338 339 342 343 341 339 337 329 330 341 328 321 332 329 328 332 323 316 311 309 312 308 312 315 307 299 289 287 291 287 286 289 286 281 275 276 276 267 263 272 270 276 286 276 265 260 254 251 251 251 250 252 253 252 255 252 248 256 255 244 244 246 244 242 237 238 241 241 243 241 239 238 240 243 241 239 238 234 229
322 322 322 321 321 324 324 328 334 334 337 340 338 339 338 333 333 337 336 327 327 333 328 322 324 320 312 305 310 315 306 307 312 307 300 292 289 289 287 290 290 284 284 284 283 278 262 260 269 265 270 286 284 274 262 253 249 248 247 246 249 253 253 256 256 254 257 252 243 245 246 244 241 236 239 241 241 244 241 237 235 236 239 240 237 237 236 231
322 320 320 320 321 323 324 327 332 334 337 337 333 337 335 333 339 336 329 333 331 326 324 320 316 317 317 314 317 318 309 310 313 306 299 293 289 286 284 291 291 285 282 282 283 280 271 265 266 273 281 286 287 283 273 264 256 251 250 248 249 254 259 260 260 260 260 251 237 233 241 250 246 234 236 241 244 248 243 233 233 234 232 233 233 235 236 234
321 320 318 317 319 322 323 326 330 332 334 333 330 332 332 335 340 332 330 338 331 324 325 319 310 310 317 321 321 319 315 314 314 308 302 297 292 287 286 289 294 291 285 280 280 279 276 273 274 280 285 290 291 285 278 269 257 250 247 243 245 252 258 262 268 273 274 266 249 236 241 255 250 235 234 237 240 242 235 228 230 233 231 232 232 233 235 234
321 320 316 314 318 322 324 326 328 330 330 328 325 328 335 339 340 335 334 335 333 332 325 315 314 313 313 316 316 318 316 313 312 310 305 301 295 286 284 287 289 291 292 288 282 279 279 277 276 278 280 292 295 285 277 271 259 247 241 239 238 246 254 259 262 264 265 263 255 246 250 246 237 236 234 233 232 229 229 231 232 231 230 231 231 232 233 232
321 319 313 310 316 320 322 325 327 328 326 322 322 329 336 339 338 338 337 334 336 336 327 322 325 322 319 318 318 323 321 314 313 312 307 302 299 289 281 276 278 288 299 293 279 283 291 285 279 284 287 297 298 284 274 269 258 245 240 239 232 236 246 252 259 258 257 259 255 256 259 247 235 236 230 227 225 220 227 237 234 226 223 224 225 226 227 228
319 315 308 309 315 317 319 323 324 323 320 319 322 329 332 332 335 337 336 335 334 332 330 330 330 326 322 319 322 328 324 316 316 316 309 304 303 294 278 260 262 282 298 292 281 288 297 292 285 295 301 305 299 283 271 257 247 243 244 243 233 234 234 234 253 265 263 266 263 260 260 248 241 234 219 219 216 209 220 236 230 219 215 217 220 217 217 221
314 310 305 310 314 313 317 320 321 319 316 316 320 326 328 329 334 335 331 332 332 331 333 335 331 327 324 323 326 330 326 323 323 321 314 310 306 284 266 250 245 268 289 293 293 296 299 297 297 306 310 307 299 290 280 252 236 236 238 235 227 234 242 236 251 266 269 274 271 268 263 240 235 222 207 208 207 204 219 232 218 209 208 212 212 207 205 210
311 307 305 309 309 309 314 315 315 314 313 317 321 323 324 324 329 332 328 327 331 334 335 336 333 329 326 327 329 332 331 328 327 327 323 319 310 231 216 216 228 273 296 295 301 307 303 302 307 315 318 312 307 307 296 259 233 228 225 224 220 223 238 248 252 255 263 274 271 277 277 152 113 209 199 199 203 205 213 213 196 191 194 198 199 196 194 200
306 302 305 308 304 305 309 308 310 314 313 315 318 318 320 322 322 324 324 322 326 335 338 336 336 334 331 329 331 335 333 329 332 334 330 320 169 152 142 153 280 315 308 298 307 321 316 310 314 325 334 330 327 327 311 261 239 228 218 221 222 219 226 238 242 235 241 258 273 286 284 117 106 206 179 178 188 187 184 181 175 174 177 180 183 183 182 189
298 299 305 305 300 302 304 303 309 313 310 313 315 314 318 319 317 317 317 312 315 328 333 333 336 336 333 332 334 335 332 331 337 337 330 254 170 160 136 121 317 316 313 313 328 337 329 319 322 336 348 348 343 339 321 260 238 225 214 218 224 220 221 231 241 234 224 233 251 267 259 123 130 155 151 156 164 164 162 163 163 162 162 162 163 165 167 171
295 298 303 301 297 297 298 299 303 305 307 312 312 309 312 312 311 314 311 302 306 320 321 323 333 333 331 333 334 334 334 334 339 340 330 181 169 164 153 247 291 307 317 325 333 342 337 329 332 346 358 357 352 344 315 245 218 206 202 207 217 217 219 229 245 253 231 218 213 224 187 126 137 145 148 156 158 157 154 151 152 151 149 154 157 159 161 159
294 295 297 297 294 291 292 295 297 300 304 308 304 302 307 306 304 308 306 296 297 307 307 314 327 328 332 335 333 335 337 335 338 343 314 180 167 161 205 263 272 312 336 341 340 344 346 343 339 339 349 353 347 343 313 201 199 196 193 197 211 216 216 221 225 227 226 211 208 235 110 117 138 140 146 158 159 159 153 146 150 148 144 150 156 160 166 164
291 291 291 293 291 286 289 294 297 297 299 301 300 300 303 303 303 306 305 297 293 298 303 313 322 323 330 334 333 334 334 330 333 338 227 190 184 190 248 252 265 314 346 357 352 352 355 358 354 346 351 357 356 1 23 139 191 199 204 205 210 214 212 211 209 213 212 183 189 231 92 110 139 151 156 162 163 161 154 149 152 149 138 137 140 146 154 156
288 290 290 290 287 283 285 290 292 293 295 296 298 300 301 301 305 309 305 296 287 287 296 307 314 316 323 328 329 330 329 324 317 297 241 212 208 218 247 251 265 320 17 32 354 357 13 19 14 8 12 17 16 21 33 34 173 208 218 213 208 207 208 207 204 204 205 189 198 219 114 118 159 173 173 173 173 167 159 158 160 155 146 140 140 140 141 150
282 288 290 291 289 284 282 281 281 286 292 294 296 301 300 299 302 305 304 298 286 275 284 295 299 304 313 324 327 328 325 320 305 278 252 230 224 228 235 239 239 188 164 177 336 338 5 25 22 20 26 30 26 30 41 44 42 219 219 212 206 204 205 208 211 215 231 223 204 153 90 242 184 183 184 182 183 180 174 175 174 168 171 178 178 186 206 219
276 284 289 290 287 284 283 282 279 281 286 287 292 295 294 293 295 296 300 298 282 269 275 283 286 295 306 316 323 326 321 312 299 274 252 237 231 224 218 225 222 210 221 225 8 326 340 20 22 16 25 30 27 26 33 40 42 53 202 206 206 206 206 211 221 232 237 232 234 289 272 273 245 193 194 189 192 195 194 192 189 192 204 215 230 246 252 251
273 279 281 282 282 282 286 287 282 280 279 281 286 287 287 289 288 290 295 290 274 264 269 277 283 292 301 304 309 318 319 307 294 273 251 241 237 229 223 229 228 225 237 239 229 323 340 22 25 12 18 25 26 27 29 29 35 52 150 200 206 208 211 217 226 233 235 238 252 267 263 264 259 221 202 192 196 201 204 209 216 222 227 237 250 256 258 261
271 275 276 277 277 278 280 280 278 279 278 279 282 283 285 288 286 286 287 277 269 262 258 269 285 296 302 300 296 305 314 304 292 279 254 240 237 232 230 233 229 223 233 235 225 284 316 355 20 8 9 23 27 26 27 21 16 31 63 160 194 206 213 220 228 231 232 239 247 254 257 255 244 229 211 201 206 212 217 224 232 239 245 256 263 260 257 259
268 271 274 275 274 272 272 272 274 277 277 275 277 280 282 284 283 284 282 272 268 265 256 262 281 295 302 301 293 295 306 302 291 283 259 240 237 235 233 234 230 225 228 230 223 235 266 275 6 341 347 27 28 14 20 24 360 357 35 95 166 191 203 215 226 226 228 236 240 242 251 251 235 229 225 218 220 226 230 236 243 249 252 256 257 254 254 260
265 266 268 271 272 269 269 270 270 273 276 276 275 276 278 282 283 281 281 275 267 266 264 265 275 287 295 298 297 301 308 305 294 287 263 240 234 233 233 233 233 232 233 232 227 229 247 252 284 320 337 33 30 7 16 27 14 44 61 68 127 164 192 210 220 223 226 231 232 237 251 253 237 232 230 227 232 238 243 247 249 249 247 247 247 249 257 267